Regional Weather Roundup
Issued by NWS

Home | Current Version | Previous Version | Graphics & Text | Print | Product List | Glossary On
Versions: 1 2 3 4 5 6 7 8 9 10 11 12 13 14 15 16 17 18 19 20 21 22 23 24 25 26 27 28 29 30 31 32 33 34 35 36 37 38 39 40 41 42 43 44 45 46 47 48 49
000
ASUS45 KCYS 291610
RWRWY

WYOMING REGIONAL WEATHER ROUNDUP
NATIONAL WEATHER SERVICE CHEYENNE WY
900 AM MST THU JAN 29 2015

NOTE:  "FAIR" INDICATES FEW OR NO CLOUDS BELOW 12,000 FEET
WITH NO SIGNIFICANT WEATHER AND/OR OBSTRUCTIONS TO VISIBILITY.

WYZ001-291700-
YELLOWSTONE NATIONAL PARK

CITY           SKY/WX    TMP DP  RH WIND       PRES   REMARKS
LK YELLOWSTONE   N/A     16  15  96 CALM      30.46R
W YELLOWSTONE  NOT AVBL

$$
WYZ002>013-054>058-071-098>099-291700-
NORTHERN WYOMING

CITY           SKY/WX    TMP DP  RH WIND       PRES   REMARKS
JACKSON        CLOUDY    21  19  93 N7        30.46R WCI  13
CODY           FAIR      34  25  69 SW10      30.40S WCI  26
GREYBULL       FOG       28  28 100 CALM      30.46S VSB<1/4
WORLAND        FAIR      28  25  88 VRB3      30.44S
SHERIDAN       FAIR      32  24  72 CALM      30.43S
BUFFALO        FAIR      33  25  72 S5        30.43S WCI  29
GILLETTE       FAIR      33  24  69 SW10      30.45S WCI  25
HULETT           N/A    N/A N/A N/A MISG        N/A
NEWCASTLE      FAIR      28  23  80 NW8       30.48S WCI  20

$$
WYZ014>020-022>026-101>103-291700-
CENTRAL WYOMING

CITY           SKY/WX    TMP DP  RH WIND       PRES   REMARKS
BIG PINEY      CLOUDY    20  16  84 S3        30.46R
PINEDALE       CLOUDY    16  14  93 CALM      30.46R
DUBOIS         FAIR      19  14  79 NW7       30.42S WCI  10
LANDER         PTSUNNY   32  26  78 NW5       30.43R WCI  27
RIVERTON       FAIR      33  29  85 NW5       30.44S WCI  29
CASPER         FAIR      31  27  85 W3        30.45S
DOUGLAS        FAIR      33  23  66 CALM      30.48R

$$
WYZ021-027>030-104>119-291700-
SOUTHERN WYOMING

CITY           SKY/WX    TMP DP  RH WIND       PRES   REMARKS
EVANSTON       FAIR      29  24  82 NE6       30.39S HAZE    WCI  23
FORT BRIDGER   FAIR      29  29 100 CALM      30.44S
ROCK SPRINGS   FOG       28  27  96 NE8       30.43S VSB 1/4 WCI  20
DIXON          FAIR      32  29  90 CALM      30.44S
RAWLINS        FAIR      31  27  85 MISG      30.44R
SARATOGA       CLOUDY    32  28  86 CALM      30.44S
LARAMIE        CLOUDY    27  25  92 CALM      30.44S
CHEYENNE       FAIR      35  24  64 W8        30.46R WCI  29
TORRINGTON     FAIR      34  21  59 N9        30.47S WCI  27
PINE BLUFFS    FAIR      34  19  55 NW8       30.48R WCI  27

$$


USA.gov is the U.S. government's official web portal to all federal, state and local government web resources and services.